Previsão horária em Senovec

Hoje, 24 Julho, Sábado

Tempo Temperatura Precipitação Vento Pressão Humidade
00:00 +19°C° 0 mm 3 m/s 748 mmHg 70%
01:00 +18°C° 0 mm 3 m/s 748 mmHg 72%
02:00 +18°C° 0 mm 2 m/s 748 mmHg 76%
03:00 +18°C° 0 mm 2 m/s 748 mmHg 77%
04:00 +17°C° 0 mm 2 m/s 748 mmHg 79%
05:00 +17°C° 0 mm 2 m/s 748 mmHg 81%
06:00 +18°C° 0.1 mm 2 m/s 748 mmHg 78%
07:00 +20°C° 0.1 mm 3 m/s 748 mmHg 76%
08:00 +21°C° 0 mm 3 m/s 748 mmHg 72%
09:00 +21°C° 0 mm 3 m/s 748 mmHg 69%
10:00 +22°C° 0 mm 3 m/s 749 mmHg 66%
11:00 +24°C° 0 mm 3 m/s 749 mmHg 63%
12:00 +25°C° 0.1 mm 3 m/s 749 mmHg 58%
13:00 +26°C° 0.1 mm 3 m/s 749 mmHg 53%
14:00 +27°C° 0.1 mm 3 m/s 749 mmHg 48%
15:00 +27°C° 0 mm 3 m/s 749 mmHg 49%
16:00 +26°C° 0 mm 3 m/s 749 mmHg 51%
17:00 +26°C° 0 mm 2 m/s 749 mmHg 53%
18:00 +25°C° 0 mm 2 m/s 749 mmHg 57%
19:00 +23°C° 0 mm 1 m/s 749 mmHg 62%
20:00 +22°C° 0 mm 1 m/s 749 mmHg 66%
21:00 +22°C° 0 mm 1 m/s 750 mmHg 67%
22:00 +21°C° 0 mm 1 m/s 750 mmHg 68%
23:00 +21°C° 0 mm 1 m/s 750 mmHg 69%

Amanhã, 25 Julho, Domingo

Tempo Temperatura Precipitação Vento Pressão Humidade
00:00 +21°C° 0 mm 1 m/s 750 mmHg 70%
01:00 +21°C° 0 mm 1 m/s 750 mmHg 70%
02:00 +21°C° 0 mm 1 m/s 751 mmHg 71%
03:00 +21°C° 0.1 mm 1 m/s 751 mmHg 72%
04:00 +20°C° 0.1 mm 1 m/s 751 mmHg 74%
05:00 +20°C° 0.1 mm 1 m/s 751 mmHg 76%
06:00 +21°C° 0 mm 1 m/s 751 mmHg 74%
07:00 +22°C° 0 mm 1 m/s 751 mmHg 73%
08:00 +22°C° 0 mm 1 m/s 751 mmHg 72%
09:00 +23°C° 0.1 mm 1 m/s 752 mmHg 69%
10:00 +23°C° 0.1 mm 1 m/s 752 mmHg 67%
11:00 +24°C° 0.1 mm 2 m/s 752 mmHg 65%
12:00 +25°C° 0.1 mm 2 m/s 752 mmHg 61%
13:00 +26°C° 0.1 mm 1 m/s 752 mmHg 57%
14:00 +26°C° 0.1 mm 1 m/s 752 mmHg 53%
15:00 +26°C° 0 mm 2 m/s 752 mmHg 54%
16:00 +26°C° 0 mm 2 m/s 752 mmHg 54%
17:00 +26°C° 0 mm 2 m/s 752 mmHg 55%
18:00 +24°C° 0 mm 2 m/s 752 mmHg 58%
19:00 +23°C° 0 mm 2 m/s 752 mmHg 62%
20:00 +21°C° 0 mm 2 m/s 752 mmHg 65%
21:00 +21°C° 0 mm 2 m/s 753 mmHg 67%
22:00 +20°C° 0 mm 2 m/s 753 mmHg 69%
23:00 +19°C° 0 mm 2 m/s 753 mmHg 71%

Depois de amanhã, 26 Julho, Segunda-feira

Tempo Temperatura Precipitação Vento Pressão Humidade
00:00 +19°C° 0 mm 2 m/s 753 mmHg 75%
01:00 +19°C° 0 mm 1 m/s 753 mmHg 78%
02:00 +18°C° 0 mm 1 m/s 753 mmHg 82%
03:00 +17°C° 0 mm 2 m/s 753 mmHg 83%
04:00 +17°C° 0 mm 2 m/s 753 mmHg 83%
05:00 +17°C° 0 mm 2 m/s 754 mmHg 84%
06:00 +19°C° 0 mm 2 m/s 754 mmHg 78%
07:00 +21°C° 0 mm 2 m/s 754 mmHg 73%
08:00 +24°C° 0 mm 2 m/s 754 mmHg 67%
09:00 +25°C° 0 mm 2 m/s 754 mmHg 61%
10:00 +27°C° 0 mm 2 m/s 754 mmHg 55%
11:00 +28°C° 0 mm 2 m/s 754 mmHg 48%
12:00 +28°C° 0 mm 2 m/s 754 mmHg 48%
13:00 +28°C° 0 mm 2 m/s 753 mmHg 48%
14:00 +28°C° 0 mm 2 m/s 753 mmHg 47%
15:00 +28°C° 0 mm 2 m/s 753 mmHg 48%
16:00 +27°C° 0 mm 2 m/s 753 mmHg 49%
17:00 +27°C° 0 mm 3 m/s 753 mmHg 50%
18:00 +25°C° 0 mm 3 m/s 753 mmHg 56%
19:00 +24°C° 0 mm 3 m/s 753 mmHg 61%
20:00 +21°C° 0 mm 2 m/s 753 mmHg 67%
21:00 +21°C° 0 mm 2 m/s 753 mmHg 70%
22:00 +20°C° 0 mm 2 m/s 753 mmHg 72%
23:00 +19°C° 0 mm 2 m/s 754 mmHg 75%

27 Julho, Terça-feira

Tempo Temperatura Precipitação Vento Pressão Humidade
00:00 +19°C° 0 mm 2 m/s 754 mmHg 77%
01:00 +18°C° 0 mm 2 m/s 754 mmHg 80%
02:00 +18°C° 0 mm 2 m/s 754 mmHg 82%
03:00 +18°C° 0 mm 2 m/s 753 mmHg 83%
04:00 +18°C° 0 mm 2 m/s 753 mmHg 84%
05:00 +17°C° 0 mm 2 m/s 753 mmHg 85%
06:00 +19°C° 0 mm 3 m/s 753 mmHg 77%
07:00 +22°C° 0 mm 3 m/s 753 mmHg 68%
08:00 +25°C° 0 mm 3 m/s 753 mmHg 60%
09:00 +26°C° 0 mm 3 m/s 753 mmHg 54%
10:00 +28°C° 0 mm 4 m/s 753 mmHg 48%
11:00 +29°C° 0 mm 4 m/s 753 mmHg 43%
12:00 +30°C° 0 mm 4 m/s 753 mmHg 40%
13:00 +32°C° 0 mm 4 m/s 752 mmHg 37%
14:00 +32°C° 0 mm 5 m/s 752 mmHg 35%
15:00 +32°C° 0 mm 4 m/s 752 mmHg 37%
16:00 +32°C° 0 mm 4 m/s 751 mmHg 38%
17:00 +30°C° 0 mm 4 m/s 751 mmHg 40%
18:00 +29°C° 0 mm 4 m/s 751 mmHg 45%
19:00 +27°C° 0 mm 4 m/s 751 mmHg 50%
20:00 +25°C° 0 mm 3 m/s 751 mmHg 55%
21:00 +24°C° 0 mm 3 m/s 750 mmHg 56%
22:00 +24°C° 0 mm 3 m/s 750 mmHg 58%
23:00 +22°C° 0 mm 3 m/s 750 mmHg 60%

28 Julho, Quarta-feira

Tempo Temperatura Precipitação Vento Pressão Humidade
00:00 +21°C° 0 mm 3 m/s 750 mmHg 63%
01:00 +21°C° 0 mm 3 m/s 750 mmHg 66%
02:00 +20°C° 0 mm 3 m/s 749 mmHg 70%
03:00 +20°C° 0.1 mm 4 m/s 749 mmHg 76%
04:00 +20°C° 0.1 mm 4 m/s 749 mmHg 82%
05:00 +20°C° 0.1 mm 5 m/s 749 mmHg 88%
06:00 +19°C° 0.8 mm 5 m/s 749 mmHg 90%
07:00 +19°C° 0.8 mm 4 m/s 749 mmHg 93%
08:00 +19°C° 0.8 mm 4 m/s 749 mmHg 96%
09:00 +20°C° 0.2 mm 4 m/s 748 mmHg 91%
10:00 +21°C° 0.2 mm 4 m/s 748 mmHg 86%
11:00 +22°C° 0.2 mm 4 m/s 748 mmHg 81%
12:00 +23°C° 0 mm 4 m/s 748 mmHg 75%
13:00 +25°C° 0 mm 4 m/s 747 mmHg 70%
14:00 +26°C° 0 mm 3 m/s 747 mmHg 65%
15:00 +26°C° 0.2 mm 3 m/s 747 mmHg 67%
16:00 +26°C° 0.2 mm 2 m/s 746 mmHg 69%
17:00 +26°C° 0.2 mm 2 m/s 746 mmHg 71%
18:00 +25°C° 0.2 mm 2 m/s 746 mmHg 76%
19:00 +23°C° 0.2 mm 1 m/s 746 mmHg 81%
20:00 +22°C° 0.2 mm 1 m/s 746 mmHg 87%
21:00 +21°C° 0 mm 1 m/s 746 mmHg 89%
22:00 +21°C° 0 mm 1 m/s 746 mmHg 90%
23:00 +20°C° 0 mm 1 m/s 746 mmHg 92%

29 Julho, Quinta-feira

Tempo Temperatura Precipitação Vento Pressão Humidade
00:00 +20°C° 0 mm 1 m/s 746 mmHg 93%
01:00 +20°C° 0 mm 1 m/s 746 mmHg 93%
02:00 +19°C° 0 mm 2 m/s 746 mmHg 94%
03:00 +19°C° 0 mm 2 m/s 746 mmHg 94%
04:00 +19°C° 0 mm 2 m/s 746 mmHg 95%
05:00 +19°C° 0 mm 2 m/s 746 mmHg 95%
06:00 +20°C° 0 mm 2 m/s 746 mmHg 87%
07:00 +23°C° 0 mm 2 m/s 746 mmHg 80%
08:00 +25°C° 0 mm 2 m/s 746 mmHg 73%
09:00 +27°C° 0 mm 2 m/s 746 mmHg 64%
10:00 +28°C° 0 mm 2 m/s 747 mmHg 56%
11:00 +30°C° 0 mm 3 m/s 747 mmHg 48%
12:00 +30°C° 0 mm 3 m/s 747 mmHg 45%
13:00 +31°C° 0 mm 3 m/s 746 mmHg 43%
14:00 +31°C° 0 mm 3 m/s 746 mmHg 40%
15:00 +31°C° 0 mm 3 m/s 746 mmHg 44%
16:00 +30°C° 0 mm 2 m/s 746 mmHg 48%
17:00 +29°C° 0 mm 2 m/s 746 mmHg 52%
18:00 +28°C° 0.2 mm 2 m/s 746 mmHg 60%
19:00 +26°C° 0.2 mm 3 m/s 746 mmHg 68%
20:00 +24°C° 0.2 mm 3 m/s 747 mmHg 75%
21:00 +22°C° 0.2 mm 3 m/s 747 mmHg 80%
22:00 +21°C° 0.2 mm 3 m/s 746 mmHg 84%
23:00 +20°C° 0.2 mm 2 m/s 746 mmHg 89%
Mostrar mais

Necessitamos do seu Consentimento

A Meteoprog e os seus Fornecedores de Serviços podem armazenar e aceder a dados pessoais como cookies, identificadores do dispositivo ou outras tecnologias semelhantes existentes no seu dispositivo e processar estes dados para personalizar conteúdos e anúncios, assim como funcionalidades nas redes sociais e análise de tráfego.

  • Armazenar e/ou aceder a informações no seu dispositivo

    Os cookies, identificadores do dispositivo ou outras informações podem ser armazenados ou acedidos no seu dispositivo, para os fins acima indicados.

  • Anúncios e conteúdos personalizados, medição de anúncios e conteúdos, dados sobre o público-alvo e desenvolvimento de produtos

    Os anúncios e os conteúdos podem ser personalizados com base num perfil. Podem ser adicionados dados adicionais para uma maior personalização dos anúncios e dos conteúdos. A eficácia dos anúncios e dos conteúdos pode ser medida. Podem ser obtidas informações sobre o público que visualizou os anúncios e os conteúdos. Estes dados podem ser usados para desenvolver ou melhorar sistemas, softwares ou a experiência do utilizador.

Ao clicar em "Eu concordo”, permitirá o uso de cookies, identificadores do dispositivo e web beacons mencionados ou outras tecnologias semelhantes. As configurações do navegador do seu dispositivo podem ser alteradas.

Para certos fins, podem ser invocados interesses legítimos ao invés de consentimento. Pode ler mais informação sobre este assunto na nossa Política de Privacidade e Cookies.